[[{"header":{"parameterUnit":"m.s-1","parameterCategory":1,"la1":30.2991,"la2":30.254,"lo1":-89.0895,"lo2":-89.0444,"dy":0.0017,"dx":0.0017,"nx":28,"ny":28,"refTime":"2024-02-12T03:00:00:Z","depth":0,"parameterNumber":2,"parameterNumberName":"U-component_of_WINDS"},"data":[0,0,0,0,0,0,0,0,0,0,0,0,0,0,0,0,0,0,0,0,0,0,0,0,0,0,0,0,0,0,0,0,0,0,0,0,0,0,0,0,0,0,0,0,0,0,0,0,0,0,0,0,0,0,0,0,0,0,-2.2032,-2.2033,0,-2.2124,-2.2126,-2.2127,-2.2129,-2.2128,-2.2127,-2.2126,-2.222,-2.2224,-2.2227,0,0,0,0,0,0,0,0,0,0,0,0,0,-2.1859,-2.1862,-2.2032,-2.2033,-2.2035,-2.2124,-2.2126,-2.2127,-2.213,-2.2128,-2.2127,-2.2126,-2.2219,-2.2223,-2.2227,0,0,0,0,0,0,0,0,0,0,0,0,0,-2.1941,-2.1863,-2.2032,-2.2047,-2.2049,-2.2124,-2.2126,-2.2127,-2.213,-2.2128,-2.2126,-2.2125,-2.2218,-2.2223,-2.2228,-2.2295,0,0,-2.2244,-2.2247,0,0,0,0,0,0,0,0,-2.1936,-2.1947,-2.2043,-2.2046,-2.2049,-2.2114,-2.2099,-2.2183,-2.213,-2.2099,-2.2126,-2.2124,-2.2186,-2.2194,-2.2215,-2.2299,-2.2303,-2.2245,-2.2248,-2.225,-2.2252,0,0,0,0,0,0,0,-2.1931,-2.1943,-2.2069,-2.2045,-2.2048,-2.2049,-2.2059,-2.2115,-2.2151,-2.2102,-2.2102,-2.2113,-2.2187,-2.221,-2.2217,-2.2304,-2.2245,-2.2249,-2.2253,-2.2255,-2.2448,-2.245,0,0,0,0,0,0,-2.1922,-2.1939,-2.2066,-2.2072,-2.1987,-2.2053,-2.2064,-2.2094,-2.215,-2.2157,-2.2114,-2.2113,-2.2201,-2.2211,-2.222,-2.2302,-2.225,-2.2255,-2.2258,-2.2446,-2.2448,-2.245,0,0,0,0,0,0,-2.1918,-2.1933,-2.2062,-2.2005,-2.2022,-2.2058,-2.2092,-2.2097,-2.212,-2.216,-2.2166,-2.2131,-2.2201,-2.2213,-2.2276,-2.2305,-2.2258,-2.2263,-2.2444,-2.2447,-2.2449,-2.2464,0,0,0,0,0,0,-2.1913,-2.1932,-2.1958,-2.2006,-2.2025,-2.2116,-2.2094,-2.21,-2.2129,-2.2128,-2.2177,-2.2184,-2.22,-2.2268,-2.2281,-2.2311,-2.2267,-2.2441,-2.2445,-2.2448,-2.2462,-2.2468,-2.2473,0,0,0,0,0,-2.1907,-2.1958,-2.1959,-2.1974,-2.2057,-2.2118,-2.2129,-2.2147,-2.2131,-2.2157,-2.2183,-2.2182,-2.23,-2.2275,-2.229,-2.2321,-2.2439,-2.2444,-2.2448,-2.2459,-2.2466,-2.2473,0,0,0,0,0,0,-2.1912,-2.1965,-2.1966,-2.2034,-2.2072,-2.2118,-2.2151,-2.2154,-2.2196,-2.2194,-2.2214,-2.2226,-2.2288,-2.2312,-2.2282,-2.2389,-2.2368,-2.2375,-2.2371,-2.2378,-2.2384,-2.2376,-2.2271,0,0,0,0,0,-2.1921,-2.1966,-2.201,-2.2065,-2.2084,-2.2115,-2.2142,-2.2152,-2.2192,-2.2208,-2.2238,-2.2277,-2.2322,-2.2352,-2.2396,-2.2466,-2.2476,-2.2495,-2.2501,-2.2505,-2.2511,-2.2549,-2.2557,-2.2465,-2.2465,-2.2465,0,0,-2.194,-2.1975,-2.2001,-2.2067,-2.2097,-2.2143,-2.2128,-2.2177,-2.2211,-2.2215,-2.2276,-2.23,-2.2345,-2.2411,-2.2442,-2.2432,-2.2539,-2.251,-2.2514,-2.2517,-2.2554,-2.2563,-2.257,-2.2468,-2.2467,-2.2467,0,0,-2.1998,-2.2029,-2.2078,-2.2109,-2.2155,-2.2175,-2.2187,-2.2234,-2.225,-2.2312,-2.2316,-2.2357,-2.2436,-2.2467,-2.2493,-2.2564,-2.2564,-2.2578,-2.2606,-2.2643,-2.265,-2.2656,-2.2681,-2.2689,-2.2584,-2.2584,-2.2584,0,-2.2015,-2.2084,-2.2103,-2.2153,-2.2181,-2.2188,-2.2238,-2.2267,-2.2325,-2.2345,-2.2334,-2.2433,-2.2463,-2.2537,-2.2554,-2.2575,-2.2589,-2.2571,-2.2647,-2.2654,-2.2661,-2.2684,-2.2693,-2.2585,-2.2585,-2.2585,-2.2584,0,-2.2103,-2.2151,-2.2186,-2.2242,-2.2275,-2.2324,-2.2351,-2.2382,-2.2391,-2.2412,-2.2475,-2.2512,-2.2564,-2.2582,-2.2591,-2.2657,-2.265,-2.2643,-2.2622,-2.267,-2.2692,-2.2702,-2.2587,-2.2586,-2.2586,-2.2586,0,0,-2.2165,-2.2232,-2.2244,-2.2269,-2.2321,-2.2358,-2.2409,-2.2459,-2.2485,-2.2526,-2.2568,-2.2635,-2.2628,-2.2658,-2.2671,-2.2703,-2.2756,-2.2692,-2.2694,-2.2702,-2.283,-2.2834,-2.2844,-2.2757,-2.2759,-2.276,-2.2826,0,-2.2228,-2.2316,-2.2335,-2.2412,-2.2456,-2.2463,-2.2507,-2.2544,-2.2565,-2.2606,-2.263,-2.2676,-2.2666,-2.2683,-2.2716,-2.2742,-2.2782,-2.2738,-2.2796,-2.2798,-2.2783,-2.2856,-2.286,-2.292,-2.2835,-2.2837,-2.2838,0,-2.2312,-2.2354,-2.2435,-2.2481,-2.25,-2.2539,-2.2587,-2.2626,-2.2668,-2.2681,-2.2715,-2.2724,-2.2776,-2.2754,-2.2826,-2.2796,-2.2821,-2.2838,-2.2841,-2.2845,-2.2819,-2.2861,-2.294,-2.2949,-2.2852,-2.2851,-2.285,0,-2.2347,-2.2425,-2.2483,-2.2505,-2.256,-2.2587,-2.2611,-2.2651,-2.2681,-2.2723,-2.2742,-2.279,-2.2816,-2.2853,-2.2875,-2.2857,-2.2945,-2.2925,-2.2957,-2.2957,-2.2974,-2.2972,-2.3056,-2.2993,-2.2993,-2.2992,-2.2992,0,-2.2414,-2.2463,-2.2499,-2.2535,-2.259,-2.2612,-2.2666,-2.269,-2.2726,-2.2767,-2.2777,-2.2815,-2.2842,-2.2884,-2.2902,-2.2958,-2.297,-2.2982,-2.2986,-2.298,-2.2979,-2.2996,-2.2992,-2.2995,-2.2994,-2.2994,-2.2993,0,-2.2463,-2.2489,-2.2553,-2.26,-2.2613,-2.2652,-2.2692,-2.2727,-2.2749,-2.2801,-2.2814,-2.2849,-2.2898,-2.2924,-2.2987,-2.2999,-2.3062,-2.3064,-2.3047,-2.3049,-2.3079,-2.3075,-2.3176,-2.319,-2.3118,-2.3119,-2.3119,0,-2.2503,-2.254,-2.2592,-2.262,-2.2644,-2.2689,-2.2719,-2.2743,-2.2774,-2.2824,-2.2853,-2.2903,-2.2945,-2.3024,-2.3055,-2.3102,-2.3105,-2.3137,-2.3112,-2.3105,-2.3104,-2.3101,-2.3104,-2.314,-2.3141,-2.3142,-2.3142,0,-2.2571,-2.2582,-2.2625,-2.2672,-2.2708,-2.2746,-2.2785,-2.2807,-2.2837,-2.2871,-2.2922,-2.2954,-2.3017,-2.3067,-2.3117,-2.3142,-2.3147,-2.315,-2.316,-2.3154,-2.3142,-2.3148,-2.3058,-2.3147,-2.3147,-2.3146,-2.3146,-2.3146,-2.2616,-2.2649,-2.269,-2.2738,-2.2769,-2.2805,-2.284,-2.2866,-2.2909,-2.2962,-2.2974,-2.3028,-2.3069,-2.3137,-2.3164,-2.3206,-2.3199,-2.3214,-2.3217,-2.322,-2.322,-2.3137,-2.3215,-2.3215,-2.3215,-2.3215,-2.3215,0,-2.2683,-2.271,-2.2754,-2.2806,-2.2844,-2.2846,-2.2888,-2.2919,-2.2966,-2.3004,-2.3045,-2.3103,-2.3151,-2.3187,-2.3236,-2.3263,-2.3266,-2.3275,-2.3272,-2.3278,-2.3224,-2.321,-2.3271,-2.3271,-2.3271,-2.3271,-2.3271,-2.3271,-2.2722,-2.2779,-2.2796,-2.2868,-2.2895,-2.2947,-2.2971,-2.3004,-2.3035,-2.3099,-2.314,-2.3162,-2.3199,-2.3251,-2.3296,-2.3305,-2.3322,-2.333,-2.3339,-2.3288,-2.3282,-2.3276,-2.3263,-2.3334,-2.3334,-2.3389,-2.339,-2.339]},{"header":{"parameterUnit":"m.s-1","parameterCategory":1,"la1":30.2991,"la2":30.254,"lo1":-89.0895,"lo2":-89.0444,"dy":0.0017,"dx":0.0017,"nx":28,"ny":28,"refTime":"2024-02-12T03:00:00:Z","depth":0,"parameterNumber":3,"parameterNumberName":"V-component_of_WINDS"},"data":[0,0,0,0,0,0,0,0,0,0,0,0,0,0,0,0,0,0,0,0,0,0,0,0,0,0,0,0,0,0,0,0,0,0,0,0,0,0,0,0,0,0,0,0,0,0,0,0,0,0,0,0,0,0,0,0,0,0,3.0849,3.085,0,3.0937,3.0938,3.0939,3.0972,3.0972,3.0972,3.0971,3.106,3.1062,3.1065,0,0,0,0,0,0,0,0,0,0,0,0,0,3.071,3.0713,3.0849,3.085,3.0851,3.0936,3.0938,3.0939,3.0972,3.0972,3.0972,3.0971,3.1059,3.1062,3.1065,0,0,0,0,0,0,0,0,0,0,0,0,0,3.0781,3.0713,3.0849,3.0878,3.0882,3.0936,3.0938,3.0939,3.0972,3.0972,3.0972,3.0971,3.1058,3.1062,3.1066,3.1097,0,0,3.1077,3.1079,0,0,0,0,0,0,0,0,3.0777,3.0786,3.0873,3.0876,3.088,3.0943,3.0921,3.0992,3.0972,3.0938,3.0971,3.0971,3.1021,3.1028,3.1045,3.1101,3.1105,3.1078,3.108,3.1082,3.1083,0,0,0,0,0,0,0,3.0772,3.0783,3.0884,3.0874,3.0878,3.0887,3.0896,3.0935,3.098,3.0941,3.0943,3.0953,3.1023,3.1041,3.1048,3.1106,3.1078,3.1081,3.1083,3.1085,3.1194,3.1195,0,0,0,0,0,0,3.0763,3.0778,3.0881,3.0886,3.0827,3.089,3.09,3.0923,3.098,3.0988,3.0954,3.0955,3.1035,3.1043,3.1051,3.1093,3.1082,3.1085,3.1088,3.1193,3.1194,3.1195,0,0,0,0,0,0,3.0759,3.0771,3.0877,3.0833,3.0847,3.0892,3.0918,3.0925,3.0944,3.099,3.0998,3.0964,3.1035,3.1045,3.1086,3.1096,3.1087,3.1091,3.1193,3.1194,3.1194,3.1176,0,0,0,0,0,0,3.0755,3.077,3.0782,3.0833,3.0849,3.0911,3.0918,3.0927,3.095,3.0952,3.1002,3.101,3.1036,3.108,3.109,3.1101,3.1094,3.1192,3.1193,3.1194,3.1176,3.1176,3.1176,0,0,0,0,0,3.075,3.0773,3.0783,3.0795,3.0866,3.0911,3.0921,3.095,3.0951,3.0964,3.0994,3.1008,3.1093,3.1084,3.1095,3.1108,3.1192,3.1193,3.1194,3.1176,3.1176,3.1176,0,0,0,0,0,0,3.0722,3.078,3.0792,3.0832,3.0866,3.0917,3.0934,3.0949,3.0984,3.0985,3.102,3.1031,3.1068,3.1092,3.108,3.1142,3.1143,3.1147,3.1126,3.1126,3.1127,3.112,3.1097,0,0,0,0,0,3.072,3.0752,3.0801,3.0832,3.0849,3.0888,3.0909,3.0929,3.0966,3.0981,3.1014,3.1049,3.1084,3.1106,3.1141,3.1179,3.1191,3.1194,3.1194,3.1194,3.1197,3.1221,3.1223,3.1199,3.1199,3.1199,0,0,3.0717,3.0753,3.0771,3.0827,3.0856,3.0889,3.09,3.0934,3.0959,3.0986,3.1027,3.1052,3.1094,3.1134,3.1153,3.1155,3.1207,3.1196,3.1195,3.1199,3.1222,3.1225,3.1227,3.12,3.12,3.12,0,0,3.0728,3.0758,3.0788,3.0817,3.0862,3.0888,3.0895,3.0944,3.0962,3.1003,3.1025,3.1055,3.1114,3.1143,3.1166,3.119,3.1204,3.12,3.1201,3.1224,3.1226,3.1228,3.1238,3.1241,3.1202,3.1202,3.1202,0,3.0718,3.0769,3.0801,3.0834,3.0859,3.0885,3.0916,3.0943,3.0996,3.1012,3.1014,3.109,3.1119,3.1167,3.1173,3.119,3.12,3.1195,3.1223,3.1225,3.1228,3.1238,3.1241,3.1202,3.1202,3.1202,3.1202,0,3.0756,3.079,3.0809,3.0861,3.0887,3.0919,3.0956,3.0979,3.0997,3.1023,3.1066,3.1102,3.1146,3.1158,3.1176,3.121,3.121,3.1216,3.1218,3.1229,3.1239,3.1243,3.1201,3.1201,3.1201,3.1201,0,0,3.0751,3.0821,3.0827,3.0852,3.0904,3.0931,3.0964,3.1007,3.1027,3.1063,3.1092,3.1142,3.115,3.1176,3.1196,3.1216,3.1235,3.1221,3.1223,3.1224,3.1276,3.1272,3.1275,3.1245,3.1245,3.1246,3.1273,0,3.077,3.0831,3.0861,3.0909,3.0942,3.0969,3.0998,3.1033,3.1059,3.1091,3.1119,3.1155,3.1161,3.1177,3.1197,3.1228,3.1246,3.1226,3.1273,3.1274,3.1263,3.128,3.1275,3.1299,3.1277,3.1278,3.1278,0,3.08,3.0837,3.0889,3.0938,3.0954,3.0979,3.1022,3.1052,3.1093,3.111,3.1139,3.116,3.1197,3.1195,3.1247,3.1233,3.1254,3.1272,3.1273,3.128,3.1278,3.1288,3.1307,3.1311,3.1284,3.1284,3.1283,0,3.0793,3.0856,3.0896,3.0916,3.0974,3.0992,3.1016,3.1057,3.1081,3.1119,3.1135,3.1176,3.1198,3.123,3.1261,3.1257,3.131,3.1311,3.1326,3.1325,3.1337,3.1336,3.136,3.1348,3.1348,3.1348,3.1348,0,3.0812,3.0843,3.0893,3.0918,3.0954,3.0988,3.1023,3.105,3.1085,3.1116,3.1141,3.1169,3.1208,3.1241,3.1266,3.1306,3.1315,3.1331,3.1337,3.1329,3.1328,3.1344,3.1344,3.1349,3.1348,3.1348,3.1348,0,3.081,3.0845,3.089,3.0943,3.0956,3.0981,3.1025,3.105,3.1078,3.1116,3.1127,3.117,3.121,3.1245,3.1297,3.1314,3.1356,3.1362,3.1342,3.1346,3.136,3.1359,3.1397,3.1404,3.1385,3.1386,3.1386,0,3.082,3.0845,3.09,3.0923,3.0948,3.0983,3.1009,3.1044,3.107,3.1119,3.1139,3.1181,3.1217,3.128,3.1316,3.1357,3.1366,3.1377,3.1372,3.1364,3.1368,3.1367,3.137,3.1377,3.1377,3.1377,3.1377,0,3.0835,3.0851,3.0888,3.0931,3.0961,3.0996,3.1032,3.1049,3.1091,3.1119,3.1161,3.1189,3.1244,3.1287,3.1332,3.1358,3.1375,3.1378,3.1385,3.1377,3.1365,3.1374,3.1344,3.1378,3.1378,3.1377,3.1377,3.1377,3.084,3.0864,3.0908,3.0948,3.0979,3.1012,3.1039,3.107,3.1106,3.1155,3.1173,3.1216,3.1258,3.1321,3.1347,3.1382,3.1384,3.1392,3.1395,3.1396,3.1396,3.1359,3.139,3.139,3.139,3.139,3.139,0,3.0857,3.0887,3.0924,3.0974,3.1006,3.102,3.1061,3.1087,3.1125,3.1163,3.1198,3.1247,3.1289,3.1329,3.1372,3.1393,3.1402,3.1403,3.1403,3.1409,3.1391,3.1382,3.1395,3.1395,3.1395,3.1395,3.1395,3.1395,3.087,3.0912,3.0934,3.0992,3.1021,3.1065,3.1087,3.1119,3.1149,3.1204,3.1239,3.1265,3.1303,3.135,3.139,3.14,3.1416,3.1415,3.1428,3.1411,3.141,3.1409,3.1401,3.1418,3.1418,3.1444,3.1444,3.1444]}]]